Overview Statistics Trail Chart Weather Telemetry Raw packets
 

This is the latest recevied weather packets stored in our database for station/object KE5QKR. If no packets are shown the sender has not sent any weather packets the latest 10 day(s).

<< 50 51 52 53 54 55 56 >>
Time Temp. Humidity Pressure Rain* Wind** Luminosity Snow
1777650894 17.22° C 98% 1012.2 hPa 0 mm - 55 W/m² -
1777650579 17.22° C 98% 1012.3 hPa 0 mm - 53 W/m² -
1777650277 17.22° C 97% 1012.2 hPa 0 mm - 54 W/m² -
1777649974 17.78° C 97% 1012.2 hPa 0 mm - 53 W/m² -
1777649672 17.78° C 97% 1012 hPa 0 mm - 100 W/m² -
1777649367 17.78° C 97% 1012.2 hPa 0 mm - 95 W/m² -
1777649065 17.78° C 97% 1012.2 hPa 0 mm - 98 W/m² -
1777648762 17.78° C 97% 1012.2 hPa 0 mm - 74 W/m² -
1777648459 17.78° C 97% 1012.3 hPa 0 mm - 51 W/m² -
1777648155 17.78° C 96% 1012 hPa 0 mm - 69 W/m² -
1777647851 17.78° C 96% 1011.8 hPa 0 mm - 61 W/m² -
1777647547 17.78° C 96% 1011.5 hPa 0 mm - 125 W/m² -
1777647244 17.78° C 97% 1011.5 hPa 0 mm - 157 W/m² -
1777646941 17.78° C 97% 1011.3 hPa 0 mm - 164 W/m² -
1777646637 17.78° C 97% 1011 hPa 0 mm - 137 W/m² -
1777646333 17.78° C 98% 1011 hPa 0 mm - 123 W/m² -
1777646030 17.78° C 97% 1010.8 hPa 0 mm - 110 W/m² -
1777645726 17.78° C 97% 1011.1 hPa 0 mm - 94 W/m² -
1777645423 17.78° C 97% 1011.2 hPa 0 mm - 79 W/m² -
1777645119 17.78° C 97% 1011.5 hPa 0 mm - 68 W/m² -
1777644816 17.78° C 98% 1011.8 hPa 0 mm - 72 W/m² -
1777644514 17.78° C 98% 1011.8 hPa 0 mm - 63 W/m² -
1777644210 17.78° C 98% 1011.8 hPa 0 mm - 62 W/m² -
1777643906 17.78° C 98% 1012 hPa 0 mm - 49 W/m² -
1777643604 17.78° C 98% 1011.9 hPa 0 mm - 100 W/m² -

* Rain latest hour (hover to see other rain measurements)
** Current wind speed in m/s (hover to see current wind gust speed)